Weather History for Manistee, MI

Change the Weather History Date:

Friday, October 25, 2013

  Actual Average Record
Temperature  
Mean Temperature 42 °F -  
Max Temperature 50 °F 56 °F 75 °F (1963)
Min Temperature 35 °F 40 °F 22 °F (1992)
Degree Days  
Heating Degree Days 22    
Moisture  
Dew Point 28 °F    
Average Humidity 56    
Maximum Humidity 93    
Minimum Humidity 42    
Precipitation  
Precipitation 0.00 in - - ()
Sea Level Pressure  
Sea Level Pressure 30.15 in    
Wind  
Wind Speed 11 mph (West)    
Max Wind Speed 23 mph    
Max Gust Speed 34 mph    
Visibility 10 miles    
Events      
Averages and records for this station are not official NWS values.
T = Trace of Precipitation, MM = Missing Value Source: NWS Daily Summary

Daily Weather History Graph

Daily Weather History Graph

Search for Another Location

Airport:

Trip Planner

Search our weather history database for the weather conditions in past years. The results will help you decide how hot, cold, wet, or windy it might be!

Date:

Astronomy

Oct. 25, 2013 Rise Set
Actual Time 8:13 AM EDT 6:44 PM EDT
Civil Twilight 7:43 AM EDT 7:14 PM EDT
Nautical Twilight 7:09 AM EDT 7:47 PM EDT
Astronomical Twilight 6:35 AM EDT 8:21 PM EDT
Moon No Moon Rise 1:56 PM EDT (10/25)
Length of Visible Light 11h 30m
Length of Day
10h 31m
Waning Gibbous, 62% of the Moon is Illuminated
Oct 25
Waning Gibbous
Oct 26
Last Quarter
Nov 3
New
Nov 10
First Quarter
Nov 17
Full

Hourly Weather History & Observations

Time (EDT) Temp. Windchill Dew Point Humidity Pressure Visibility Wind Dir Wind Speed Gust Speed Precip Events Conditions
12:15 AM 42.8 °F 35.4 °F 30.2 °F 61% 30.17 in 10.0 mi NW 15.0 mph - N/A   Overcast
12:35 AM 42.8 °F 37.0 °F 28.4 °F 57% 30.17 in 10.0 mi NW 10.4 mph 20.7 mph N/A   Mostly Cloudy
12:55 AM 42.8 °F 36.6 °F 28.4 °F 57% 30.18 in 10.0 mi NW 11.5 mph - N/A   Overcast
1:15 AM 42.8 °F 37.0 °F 30.2 °F 61% 30.19 in 10.0 mi NW 10.4 mph 19.6 mph N/A   Overcast
1:35 AM 41.0 °F 34.3 °F 30.2 °F 65% 30.19 in 10.0 mi NW 11.5 mph - N/A   Mostly Cloudy
1:55 AM 42.8 °F 37.5 °F 30.2 °F 61% 30.19 in 10.0 mi NNW 9.2 mph 16.1 mph N/A   Mostly Cloudy
2:15 AM 42.8 °F 39.3 °F 28.4 °F 57% 30.20 in 10.0 mi NNW 5.8 mph - N/A   Overcast
2:35 AM 42.8 °F 39.3 °F 28.4 °F 57% 30.20 in 10.0 mi NNW 5.8 mph - N/A   Overcast
2:55 AM 42.8 °F 37.5 °F 28.4 °F 57% 30.21 in 10.0 mi NNW 9.2 mph 16.1 mph N/A   Overcast
3:15 AM 39.2 °F 35.9 °F 32.0 °F 75% 30.22 in 10.0 mi East 4.6 mph - N/A   Overcast
3:35 AM 35.6 °F - 33.8 °F 93% 30.22 in 10.0 mi Calm Calm - N/A   Mostly Cloudy
3:55 AM 41.0 °F 36.4 °F 28.4 °F 61% 30.21 in 10.0 mi NW 6.9 mph - N/A   Mostly Cloudy
4:15 AM 37.4 °F - 30.2 °F 75% 30.21 in 10.0 mi Calm Calm - N/A   Mostly Cloudy
4:35 AM 39.2 °F 35.0 °F 28.4 °F 65% 30.22 in 10.0 mi NW 5.8 mph - N/A   Mostly Cloudy
4:55 AM 41.0 °F 36.4 °F 28.4 °F 61% 30.22 in 10.0 mi WNW 6.9 mph - N/A   Mostly Cloudy
5:15 AM 41.0 °F 35.8 °F 28.4 °F 61% 30.22 in 10.0 mi NW 8.1 mph - N/A   Scattered Clouds
5:35 AM 41.0 °F 34.7 °F 28.4 °F 61% 30.23 in 10.0 mi NW 10.4 mph 16.1 mph N/A   Mostly Cloudy
5:55 AM 41.0 °F 35.8 °F 28.4 °F 61% 30.24 in 10.0 mi WNW 8.1 mph - N/A   Mostly Cloudy
6:15 AM 41.0 °F 35.2 °F 28.4 °F 61% 30.24 in 10.0 mi WNW 9.2 mph - N/A   Mostly Cloudy
6:35 AM 41.0 °F 35.2 °F 28.4 °F 61% 30.24 in 10.0 mi NW 9.2 mph - N/A   Overcast
6:55 AM 41.0 °F 33.9 °F 28.4 °F 61% 30.25 in 10.0 mi NW 12.7 mph - N/A   Mostly Cloudy
7:15 AM 41.0 °F 35.2 °F 26.6 °F 57% 30.25 in 10.0 mi NW 9.2 mph - N/A   Mostly Cloudy
7:35 AM 41.0 °F 35.2 °F 28.4 °F 61% 30.24 in 10.0 mi WNW 9.2 mph - N/A   Mostly Cloudy
7:55 AM 41.0 °F 33.9 °F 28.4 °F 61% 30.25 in 10.0 mi WNW 12.7 mph - N/A   Overcast
8:15 AM 41.0 °F 33.9 °F 28.4 °F 61% 30.25 in 10.0 mi WNW 12.7 mph - N/A   Mostly Cloudy
8:35 AM 41.0 °F 35.8 °F 30.2 °F 65% 30.26 in 10.0 mi WNW 8.1 mph - N/A   Mostly Cloudy
8:55 AM 41.0 °F 33.5 °F 28.4 °F 61% 30.27 in 10.0 mi WNW 13.8 mph - N/A   Mostly Cloudy
9:15 AM 41.0 °F 34.7 °F 28.4 °F 61% 30.27 in 10.0 mi WNW 10.4 mph - N/A   Mostly Cloudy
9:35 AM 42.8 °F 35.8 °F 28.4 °F 57% 30.28 in 10.0 mi WNW 13.8 mph - N/A   Mostly Cloudy
9:55 AM 42.8 °F 37.0 °F 28.4 °F 57% 30.27 in 10.0 mi West 10.4 mph - N/A   Mostly Cloudy
10:15 AM 42.8 °F 36.2 °F 26.6 °F 53% 30.27 in 10.0 mi WNW 12.7 mph - N/A   Mostly Cloudy
10:35 AM 44.6 °F 38.4 °F 28.4 °F 53% 30.27 in 10.0 mi West 12.7 mph - N/A   Mostly Cloudy
10:55 AM 44.6 °F 38.4 °F 30.2 °F 57% 30.27 in 10.0 mi West 12.7 mph 18.4 mph N/A   Overcast
11:15 AM 42.8 °F 36.6 °F 32.0 °F 66% 30.27 in 10.0 mi West 11.5 mph 17.3 mph N/A   Mostly Cloudy
11:35 AM 42.8 °F 35.4 °F 30.2 °F 61% 30.27 in 10.0 mi West 15.0 mph 19.6 mph N/A   Mostly Cloudy
11:55 AM 44.6 °F 38.4 °F 28.4 °F 53% 30.26 in 10.0 mi West 12.7 mph 17.3 mph N/A   Mostly Cloudy
12:15 PM 42.8 °F 35.4 °F 30.2 °F 61% 30.26 in 10.0 mi West 15.0 mph - N/A   Overcast
12:35 PM 44.6 °F 37.8 °F 28.4 °F 53% 30.26 in 10.0 mi West 15.0 mph 18.4 mph N/A   Overcast
12:55 PM 44.6 °F 38.4 °F 26.6 °F 49% 30.26 in 10.0 mi West 12.7 mph 19.6 mph N/A   Overcast
1:15 PM 44.6 °F 38.1 °F 24.8 °F 46% 30.25 in 10.0 mi West 13.8 mph 21.9 mph N/A   Overcast
1:35 PM 44.6 °F 40.2 °F 24.8 °F 46% 30.24 in 10.0 mi West 8.1 mph 21.9 mph N/A   Overcast
1:55 PM 42.8 °F 36.6 °F 24.8 °F 49% 30.23 in 10.0 mi West 11.5 mph 18.4 mph N/A   Overcast
2:15 PM 44.6 °F 38.4 °F 24.8 °F 46% 30.22 in 10.0 mi West 12.7 mph 18.4 mph N/A   Overcast
2:35 PM 42.8 °F 35.4 °F 21.2 °F 42% 30.21 in 10.0 mi WSW 15.0 mph 21.9 mph N/A   Overcast
2:55 PM 44.6 °F 38.1 °F 24.8 °F 46% 30.20 in 10.0 mi West 13.8 mph 19.6 mph N/A   Overcast
3:15 PM 42.8 °F 36.2 °F 24.8 °F 49% 30.19 in 10.0 mi WSW 12.7 mph 16.1 mph N/A   Overcast
3:35 PM 42.8 °F 36.2 °F 23.0 °F 46% 30.18 in 10.0 mi WSW 12.7 mph 21.9 mph N/A   Overcast
3:55 PM 42.8 °F 37.0 °F 24.8 °F 49% 30.17 in 10.0 mi SW 10.4 mph 18.4 mph N/A   Overcast
4:15 PM 42.8 °F 37.0 °F 24.8 °F 49% 30.16 in 10.0 mi SW 10.4 mph - N/A   Overcast
4:35 PM 42.8 °F 37.0 °F 23.0 °F 46% 30.15 in 10.0 mi WSW 10.4 mph 19.6 mph N/A   Overcast
4:55 PM 42.8 °F 36.6 °F 24.8 °F 49% 30.13 in 10.0 mi SW 11.5 mph 19.6 mph N/A   Overcast
5:15 PM 42.8 °F 37.0 °F 24.8 °F 49% 30.12 in 10.0 mi SW 10.4 mph - N/A   Overcast
5:35 PM 42.8 °F 37.5 °F 26.6 °F 53% 30.10 in 10.0 mi SSW 9.2 mph 17.3 mph N/A   Overcast
5:55 PM 42.8 °F 37.5 °F 26.6 °F 53% 30.09 in 10.0 mi SSW 9.2 mph - N/A   Mostly Cloudy
6:15 PM 42.8 °F 37.0 °F 26.6 °F 53% 30.07 in 10.0 mi SSW 10.4 mph 19.6 mph N/A   Mostly Cloudy
6:35 PM 42.8 °F 37.0 °F 26.6 °F 53% 30.05 in 10.0 mi SSW 10.4 mph 17.3 mph N/A   Scattered Clouds
6:55 PM 42.8 °F 38.6 °F 28.4 °F 57% 30.04 in 10.0 mi SSW 6.9 mph - N/A   Partly Cloudy
7:15 PM 42.8 °F 38.6 °F 28.4 °F 57% 30.03 in 10.0 mi SSW 6.9 mph - N/A   Scattered Clouds
7:35 PM 44.6 °F 40.2 °F 28.4 °F 53% 30.01 in 10.0 mi SSW 8.1 mph - N/A   Mostly Cloudy
7:55 PM 44.6 °F 40.7 °F 28.4 °F 53% 30.00 in 10.0 mi SSW 6.9 mph - N/A   Mostly Cloudy
8:15 PM 44.6 °F 40.2 °F 30.2 °F 57% 29.98 in 10.0 mi SSW 8.1 mph - N/A   Overcast
8:35 PM 46.4 °F 42.4 °F 30.2 °F 53% 29.97 in 10.0 mi SSW 8.1 mph - N/A   Overcast
8:55 PM 46.4 °F 41.5 °F 30.2 °F 53% 29.95 in 10.0 mi SW 10.4 mph 16.1 mph N/A   Overcast
9:15 PM 48.2 °F - 30.2 °F 50% 29.95 in 10.0 mi SW 9.2 mph 19.6 mph N/A   Overcast
9:35 PM 48.2 °F - 30.2 °F 50% 29.95 in 10.0 mi SW 9.2 mph 25.3 mph N/A   Overcast
9:55 PM 48.2 °F - 30.2 °F 50% 29.92 in 10.0 mi SW 11.5 mph 26.5 mph N/A   Overcast
10:15 PM 48.2 °F - 30.2 °F 50% 29.92 in 10.0 mi SW 13.8 mph 29.9 mph N/A   Overcast
10:35 PM 48.2 °F - 30.2 °F 50% 29.91 in 10.0 mi SW 23.0 mph 34.5 mph N/A   Overcast
10:55 PM 48.2 °F - 30.2 °F 50% 29.90 in 10.0 mi SW 21.9 mph 29.9 mph N/A   Overcast
11:15 PM 48.2 °F - 28.4 °F 46% 29.88 in 10.0 mi SW 16.1 mph 24.2 mph N/A   Overcast
11:35 PM 50.0 °F - 28.4 °F 43% 29.87 in 10.0 mi SW 21.9 mph 34.5 mph N/A   Overcast
11:55 PM 48.2 °F - 28.4 °F 46% 29.85 in 10.0 mi SW 19.6 mph 29.9 mph N/A   Overcast